x

Yucatan Basin - 120 Nm Ese Of Cozumel, Mx (42056) Wave Buoy

11:40 - Wed 7th Dec 2016 All times are CST. -6 hours from GMT.

  • Sig Wave height 3.0ft
  • Swell Direction
  • Average Period 4s
  • Wind
    11mph, 16mph gusts
  • Sea Temp 83°f
  • Ar Temp 83°f
  • Sea Pressure 1015.5mb
  •  Yucatan Basin - 120 Nm Ese Of Cozumel, Mx
  •  Yucatan Basin - 120 Nm Ese Of Cozumel, Mx

More Historic Weather Station data

Upgrade to MSW Pro to gain access to the past 30 days of data for over 8000 Wavebouys and Weather Stations around the globe.

Join Pro

Comparision Forecast

View Surf forecast
   
Qua 12/07 11:40 3ft  -  4s 11 16 mph 1015.5mb 83f 83f
11:30  -   -   -  13 16 mph 1015.6mb 83f 82f
11:20  -   -   -  11 16 mph 1015.8mb 83f 83f
11:10  -   -   -  11 16 mph 1016mb 83f 83f
11:00  -   -   -  11 13 mph 1016mb 83f 83f
10:50 3ft 5s 4s 11 16 mph 1016mb 83f 83f
10:40 3ft  -  4s 11 16 mph 1016.1mb 83f 82f
10:30  -   -   -  13 16 mph 1016.4mb 82f 82f
10:20  -   -   -  11 16 mph 1016.4mb 82f 83f
10:10  -   -   -  13 16 mph 1016.4mb 82f 83f
10:00  -   -   -  13 16 mph 1016.4mb 82f 83f
9:50 3ft 5s 4s 13 16 mph 1016.4mb 82f 83f
9:40  -   -   -  16 18 mph 1016.4mb 82f 83f
9:30  -   -   -  13 18 mph 1016.4mb 82f 83f
9:20  -   -   -  13 16 mph 1016.4mb 82f 83f
9:10  -   -   -  13 18 mph 1016.3mb 82f 83f
9:00  -   -   -  13 16 mph 1016.3mb 82f 83f
8:50 3ft  -  5s 13 16 mph 1016.3mb 82f 83f
8:40 3ft 6s 5s  -  mph - - -
8:30  -   -   -  13 16 mph 1016mb 82f 82f
8:20  -   -   -  13 16 mph 1016mb 82f 83f
8:10  -   -   -  13 16 mph 1016mb 82f 82f
8:00  -   -   -  13 16 mph 1015.9mb 82f 82f
7:50 3ft 5s 4s 13 16 mph 1015.8mb 82f 82f
7:40  -   -   -  13 16 mph 1015.6mb 82f 82f
7:30  -   -   -  13 18 mph 1015.5mb 82f 82f
7:20  -   -   -  13 18 mph 1015.4mb 82f 82f
7:10  -   -   -  13 18 mph 1015.1mb 82f 82f
7:00  -   -   -  13 16 mph 1015.1mb 82f 82f
6:50  -   -   -   -  mph 1015mb 82f -
6:40  -   -   -  13 16 mph 1015mb 82f 82f
6:30  -   -   -  13 16 mph 1015mb 82f 82f
6:20  -   -   -  13 16 mph 1014.8mb 82f 82f
6:10  -   -   -  13 16 mph 1014.8mb 82f 82f
6:00  -   -   -  13 16 mph 1014.8mb 82f 82f
5:50 3ft 6s  -  13 16 mph 1014.5mb 82f 82f
5:40  -   -   -  13 16 mph 1014.5mb 82f 82f
5:30  -   -   -  13 16 mph 1014.4mb 82f 82f
5:20  -   -   -  13 18 mph 1014.3mb 82f 82f
5:10  -   -   -  13 16 mph 1014.1mb 82f 82f
5:00  -   -   -  13 18 mph 1014mb 82f 82f
4:50 3.5ft 6s 5s 13 16 mph 1014mb 82f 82f
4:40 3.5ft  -  5s 13 18 mph 1013.9mb 82f 82f
4:30  -   -   -  13 18 mph 1013.9mb 82f 82f
4:20  -   -   -  13 16 mph 1014mb 82f 82f
4:10  -   -   -  13 18 mph 1013.8mb 82f 82f
4:00  -   -   -  13 18 mph 1013.9mb 82f 82f
3:50 3ft 6s 4s 13 16 mph 1013.9mb 82f 82f
3:40  -   -   -  13 16 mph 1013.8mb 82f 82f
3:30  -   -   -  13 16 mph 1013.9mb 82f 82f
3:20  -   -   -  13 16 mph 1013.9mb 82f 82f
3:10  -   -   -  11 13 mph 1013.9mb 82f 82f
3:00  -   -   -  11 13 mph 1013.9mb 82f 82f
2:50 3.5ft 5s 5s 11 13 mph 1013.9mb 82f 82f
2:40 3.5ft  -  5s 13 16 mph 1013.9mb 82f 82f
2:30  -   -   -  11 16 mph 1014mb 82f 82f
2:20  -   -   -  11 13 mph 1014mb 82f 82f
2:10  -   -   -  11 16 mph 1014mb 82f 82f
2:00  -   -   -  16 20 mph 1014mb 82f 82f
1:50 3ft 5s 4s 13 16 mph 1014mb 82f 82f
1:40  -   -   -  13 18 mph 1014mb 82f 82f
1:30  -   -   -  13 16 mph 1014mb 82f 82f
1:20  -   -   -  13 16 mph 1014mb 82f 82f
1:10  -   -   -  13 18 mph 1014mb 82f 82f
1:00  -   -   -  16 18 mph 1014mb 82f 82f
12:50 3.5ft 6s 5s 16 18 mph 1014mb 82f 82f
12:40 3.5ft  -  5s 16 20 mph 1014mb 82f 82f
12:30  -   -   -  16 18 mph 1014mb 82f 82f
12:20  -   -   -  13 18 mph 1014.1mb 82f 82f
12:10  -   -   -  13 18 mph 1014mb 82f 82f
12:00  -   -   -  13 16 mph 1014.1mb 82f 82f
Ter 12/06 11:50 3.5ft 6s 5s 13 16 mph 1014.3mb 82f 82f
11:40  -   -   -  13 18 mph 1014.1mb 82f 82f
11:30  -   -   -  13 18 mph 1014.3mb 82f 82f
11:20  -   -   -  13 16 mph 1014.5mb 82f 82f
11:10  -   -   -  11 18 mph 1014.5mb 82f 82f
11:00  -   -   -  11 13 mph 1014.5mb 82f 82f
10:50 3.5ft 6s 5s 11 13 mph 1014.5mb 82f 82f
10:40  -   -   -  11 13 mph 1014.6mb 82f 82f
10:30  -   -   -  9 13 mph 1014.8mb 82f 82f
10:20  -   -   -  11 13 mph 1014.8mb 82f 82f
10:10  -   -   -  11 13 mph 1014.8mb 82f 82f
10:00  -   -   -  11 13 mph 1014.8mb 82f 82f
9:50 3.5ft 6s 5s 11 13 mph 1014.8mb 82f 82f
9:40 3.5ft  -  5s 11 13 mph 1014.8mb 82f 82f
9:30  -   -   -  9 11 mph 1014.8mb 82f 82f
9:20  -   -   -  9 11 mph 1014.8mb 82f 82f
9:10  -   -   -  9 11 mph 1014.6mb 82f 82f
9:00  -   -   -  9 11 mph 1014.6mb 82f 82f
6:30  -   -   -  11 13 mph 1013.5mb - 83f
6:20  -   -   -  11 13 mph 1013.5mb 82f 83f
6:10  -   -   -  11 16 mph 1013.4mb 82f 83f
6:00  -   -   -  13 16 mph 1013.3mb 82f 83f
5:50 4ft 6s 5s 11 13 mph 1013.1mb 82f 83f
5:40  -   -   -  11 16 mph 1013.1mb 82f 82f
5:30  -   -   -  11 16 mph 1013mb 82f 83f
5:20  -   -   -  11 13 mph 1013mb 82f 83f
5:10  -   -   -  11 16 mph 1012.9mb 82f 83f
5:00  -   -   -  13 18 mph 1012.8mb 82f 83f
4:50 4ft 6s 5s 13 16 mph 1012.6mb 82f 83f
4:40  -   -   -  13 16 mph 1012.8mb 82f 83f
4:30  -   -   -  13 18 mph 1012.5mb 82f 83f
4:20  -   -   -  13 18 mph 1012.5mb 83f 83f
4:10  -   -   -  13 18 mph 1012.5mb 83f 83f
4:00  -   -   -  13 18 mph 1012.4mb 83f 83f
3:50 4.5ft 6s 5s 16 18 mph 1012.3mb 82f 83f
3:40 4.5ft  -  5s 16 20 mph 1012.1mb 83f 83f
3:30  -   -   -  16 20 mph 1012mb 83f 83f
3:20  -   -   -  16 18 mph 1012mb - 83f
3:10  -   -   -  16 18 mph 1012mb 83f 83f
3:00  -   -   -  16 18 mph 1012.1mb 83f 83f
2:50 4ft 6s 5s 16 20 mph 1012.1mb 83f 83f
2:40  -   -   -  16 20 mph 1012.1mb 83f 83f
2:30  -   -   -  16 18 mph 1012.1mb 83f 83f
2:20  -   -   -  16 18 mph 1012mb 83f 83f
2:10  -   -   -  13 16 mph 1012mb 83f 83f
2:00  -   -   -  16 18 mph 1012mb - 83f
1:50 4ft 6s 5s 16 18 mph 1012mb 83f 83f
1:40 4ft  -  5s 16 20 mph 1012mb 83f 83f
1:30  -   -   -  16 20 mph 1012mb 83f 83f
1:20  -   -   -  16 18 mph 1012mb 83f 83f
1:10  -   -   -  16 18 mph 1012.1mb 83f 83f
1:00  -   -   -  16 18 mph 1012.3mb 82f 83f
11:50 4.5ft 6s 5s 18 20 mph 1013.8mb 82f 83f
11:30  -   -   -  16 20 mph 1013.4mb 82f 83f
11:20  -   -   -  16 20 mph 1013.5mb 82f 83f
11:10  -   -   -  16 18 mph 1013.8mb 82f 83f
11:00  -   -   -  16 20 mph 1013.9mb 82f 83f
10:50 4ft 6s 5s 16 20 mph 1014mb 82f 83f
10:40  -   -   -  16 20 mph 1014mb 82f 83f
10:30  -   -   -  18 20 mph 1014mb 82f 83f
10:20  -   -   -  18 20 mph 1014.1mb 82f 83f
10:10  -   -   -  16 20 mph 1014.3mb 82f 83f
10:00  -   -   -  18 22 mph 1014.3mb 82f 83f
9:50 4.5ft 6s 5s 18 22 mph 1014.4mb 82f 83f
9:40 4.5ft  -  5s 18 22 mph 1014.5mb 82f 83f
9:30  -   -   -  18 20 mph 1014.5mb 82f 83f
9:20  -   -   -  18 22 mph 1014.5mb 82f 83f
9:10  -   -   -  18 22 mph 1014.4mb 82f 83f
9:00  -   -   -  18 22 mph 1014.4mb 82f 83f
8:50 4.5ft 6s 5s 18 22 mph 1014.3mb 82f 83f
8:40 4.5ft  -  5s 18 22 mph 1014.1mb 82f 83f
8:30  -   -   -  18 20 mph 1014.1mb 82f 83f
8:20  -   -   -  18 20 mph 1014mb 82f 83f
8:10  -   -   -  16 20 mph 1014mb 82f 83f
8:00  -   -   -  18 20 mph 1014mb 82f 83f
7:50 4.5ft 6s 5s 18 20 mph 1013.8mb 82f 83f
7:40  -   -   -  16 20 mph 1013.8mb 82f 83f
7:30  -   -   -  18 20 mph 1013.6mb 82f 83f
7:20  -   -   -  18 22 mph 1013.5mb 82f 83f
7:10  -   -   -  18 22 mph 1013.4mb 82f 82f
7:00  -   -   -  18 22 mph 1013.3mb 82f 82f
6:50 4.5ft 6s 5s 18 22 mph 1013mb 82f 82f
6:40  -   -   -  18 22 mph 1013mb 82f 82f
6:30  -   -   -  18 22 mph 1013mb 82f 82f
6:20  -   -   -  20 22 mph 1012.9mb 82f 82f
6:10  -   -   -  18 22 mph 1012.9mb 82f 82f
6:00  -   -   -  18 22 mph 1012.8mb 82f 82f
5:50 5ft 6s 5s 18 22 mph 1012.6mb 82f 82f
5:40  -   -   -  18 22 mph 1012.6mb 82f 82f
5:30  -   -   -  18 22 mph 1012.5mb 82f 82f
5:20  -   -   -  18 22 mph 1012.5mb 82f 82f
5:10  -   -   -  18 22 mph 1012.5mb 82f 82f
5:00  -   -   -  18 22 mph 1012.5mb 82f 82f
4:50 4.5ft 6s 5s 18 22 mph 1012.5mb 82f 82f
4:40 4.5ft  -  5s 18 22 mph 1012.5mb 82f -
4:30  -   -   -  18 22 mph 1012.5mb 82f 82f
4:20  -   -   -  18 20 mph 1012.5mb 82f 82f
4:10  -   -   -  18 22 mph 1012.4mb 82f 82f
4:00  -   -   -  18 22 mph 1012.4mb 82f 82f
3:50 4.5ft 6s 5s 16 20 mph 1012.3mb 82f 82f
3:40  -   -   -  16 20 mph 1012.3mb 82f 82f
3:30  -   -   -  16 20 mph 1012.3mb 82f 82f
3:20  -   -   -  16 20 mph 1012.3mb 82f 82f
3:10  -   -   -  18 22 mph 1012.1mb 82f 82f
3:00  -   -   -  18 22 mph 1012mb 82f 82f
2:50 5ft 6s 5s 18 22 mph 1012mb 82f 82f
2:40  -   -   -  18 22 mph 1011.9mb 82f 82f
2:30  -   -   -  18 22 mph 1011.9mb 82f 82f
2:20  -   -   -  16 20 mph 1011.8mb 82f 82f
2:10  -   -   -  18 22 mph 1011.8mb 82f 82f
2:00  -   -   -  18 22 mph 1011.6mb 82f 82f
1:50 5ft 7s 5s 18 22 mph 1011.5mb 82f 82f
1:40  -   -   -  18 22 mph 1011.5mb 82f 82f
1:30  -   -   -  18 22 mph 1011.5mb 82f 82f
1:20  -   -   -  20 22 mph 1011.5mb 82f 82f
1:10  -   -   -  20 25 mph 1011.5mb 82f 82f
1:00  -   -   -  18 20 mph 1011.8mb 82f 82f
12:50 5ft 6s 5s 16 20 mph 1011.8mb 82f 82f
12:40 5ft  -  5s 16 20 mph 1011.8mb 82f 82f
12:30  -   -   -  18 22 mph 1011.9mb 82f 82f
12:20  -   -   -  20 25 mph 1011.9mb 82f 82f
12:10  -   -   -  18 25 mph 1011.8mb 82f 82f
12:00  -   -   -  20 27 mph 1011.8mb 82f 83f
Seg 12/05 11:50 5ft 6s 5s 20 25 mph 1011.6mb 82f 83f
11:40  -   -   -  20 22 mph 1011.8mb 82f 83f
11:30  -   -   -  20 25 mph 1012mb 82f 83f
11:20  -   -   -  20 25 mph 1012mb 82f 83f
11:10  -   -   -  20 25 mph 1012mb 82f 83f
11:00  -   -   -  18 25 mph 1012mb 82f 83f
10:50 5ft 6s 5s 20 22 mph 1012.1mb 82f 83f
10:40 5ft  -  5s 20 25 mph 1012.3mb - 83f
10:30  -   -   -  20 25 mph 1012.4mb 82f 83f
10:20  -   -   -  18 22 mph 1012.4mb 82f 83f
10:10  -   -   -  18 22 mph 1012.4mb 82f 83f
10:00  -   -   -  18 22 mph 1012.5mb 82f 83f
9:50 5.5ft 6s 5s 18 22 mph 1012.5mb 82f 83f
9:40  -   -   -  18 25 mph 1012.5mb 82f 83f
9:30  -   -   -  18 22 mph 1012.4mb 82f 83f
9:20  -   -   -  20 22 mph 1012.4mb 82f 83f
9:10  -   -   -  20 25 mph 1012.3mb 82f 83f
9:00  -   -   -  20 25 mph 1012.3mb 82f 83f
8:50 5ft 7s 5s 20 25 mph 1012.4mb 82f 83f
8:40 5ft  -  5s 18 22 mph 1012.5mb 82f 83f
8:30  -   -   -  18 22 mph 1012.4mb 82f 83f
8:20  -   -   -  18 22 mph 1012.3mb 82f 83f
8:10  -   -   -  18 22 mph 1012.3mb 82f 83f
8:00  -   -   -  18 20 mph 1012.1mb 82f 83f
7:50 5ft 7s 5s 18 22 mph 1012.1mb 82f 83f
7:40  -   -   -  20 25 mph 1012mb 82f 83f
7:30 5ft  -  5s 18 22 mph 1012mb 82f 83f
7:20  -   -   -  20 25 mph 1012mb 82f 83f
7:10  -   -   -  18 22 mph 1012mb 82f 83f
7:00  -   -   -  18 22 mph 1012mb 82f 83f
6:50 5.5ft  -  5s 18 22 mph 1012.6mb - 83f
6:40  -   -   -  18 22 mph 1011.9mb 82f 83f
6:30  -   -   -  18 22 mph 1011.6mb 82f 83f
6:20  -   -   -  18 22 mph 1011.6mb 82f 83f
6:10  -   -   -  18 22 mph 1011.5mb 82f 83f
6:00  -   -   -  16 20 mph 1011.4mb 82f 83f
5:50 5.5ft 6s 5s 18 22 mph 1011.3mb 82f 83f
5:40 5.5ft  -  5s 18 22 mph 1011mb 82f 83f
5:30  -   -   -  20 25 mph 1011mb 82f 83f
5:20  -   -   -  20 25 mph 1010.6mb 82f 83f
5:10  -   -   -  20 25 mph 1010.5mb 82f 83f
5:00  -   -   -  20 25 mph 1010.5mb 82f 83f
4:50 5ft 6s 5s 18 25 mph 1010.5mb 82f 83f
4:40 5ft  -  5s 20 25 mph 1010.4mb 82f 83f
4:30  -   -   -  20 27 mph 1010.4mb 82f 83f
4:20  -   -   -  20 27 mph 1010.3mb 82f 83f
4:10  -   -   -  20 27 mph 1010.3mb 82f 83f
4:00  -   -   -  20 25 mph 1010.3mb 82f 83f
3:50 5.5ft 7s 5s 20 27 mph 1010mb 82f 83f
3:40 5.5ft  -  5s 20 25 mph 1010mb 82f 83f
3:30  -   -   -  20 25 mph 1010mb 82f 83f
3:20  -   -   -  20 27 mph 1010mb 82f 83f
3:10  -   -   -  20 27 mph 1010mb 82f 83f
3:00  -   -   -  20 25 mph 1010mb 82f 83f
2:50 5.5ft 7s 5s 18 22 mph 1010mb 82f 83f
2:40 5.5ft  -  5s 20 25 mph 1010.1mb 82f 83f
2:30  -   -   -  20 25 mph 1010.1mb 82f 83f
2:20  -   -   -  20 25 mph 1010.3mb 82f 83f
2:10  -   -   -  20 27 mph 1010.3mb 82f 83f
2:00  -   -   -  20 27 mph 1010.3mb 82f 83f
1:50 5.5ft 7s 5s 18 22 mph 1010.3mb 82f 83f
1:40 5.5ft  -  5s 20 25 mph 1010.3mb 82f 83f
1:30  -   -   -  20 22 mph 1010.3mb 82f 83f
1:20  -   -   -  20 25 mph 1010.4mb 82f 83f
1:10  -   -   -  18 25 mph 1010.4mb 82f 83f
1:00  -   -   -  20 27 mph 1010.5mb 82f 83f
12:50 6ft 6s 5s 20 25 mph 1010.5mb 82f 83f
12:40  -   -   -  18 25 mph 1010.6mb 82f 83f
12:30  -   -   -  20 25 mph 1010.9mb 82f 83f
12:20  -   -   -  20 27 mph 1010.9mb 82f 83f
12:10  -   -   -  18 22 mph 1011mb 82f 83f
12:00  -   -   -  20 25 mph 1011.3mb 82f 83f
11:50 5.5ft 7s 5s 18 22 mph 1011.5mb 82f 83f
11:40 5.5ft  -  5s 20 25 mph 1011.6mb 82f 83f
11:30  -   -   -  20 27 mph 1011.8mb 82f 83f
11:20  -   -   -  18 27 mph 1011.8mb 82f 83f
11:10  -   -   -  22 27 mph 1011.8mb 82f 83f
11:00  -   -   -  22 27 mph 1012mb 82f 83f
10:50 6ft 7s 5s 20 27 mph 1012mb 82f 83f
10:40 6ft  -  5s 22 25 mph 1012.3mb 82f 83f
10:30  -   -   -  20 25 mph 1012.5mb 82f 83f
10:20  -   -   -  18 22 mph 1012.5mb 82f 83f
10:10  -   -   -  20 25 mph 1012.5mb 82f 83f
10:00  -   -   -  20 25 mph 1012.8mb 82f 83f
9:50 6ft 7s 5s 20 27 mph 1012.6mb 82f 83f
9:40 6ft  -  5s 22 27 mph 1012.8mb 82f 83f
9:30  -   -   -  20 27 mph 1012.8mb 82f 83f
9:20  -   -   -  20 25 mph 1012.8mb 82f 83f
9:10  -   -   -  20 25 mph 1012.9mb 82f 83f
9:00  -   -   -  20 25 mph 1012.8mb 82f 83f
8:50 5.5ft 7s 5s 20 27 mph 1012.5mb 82f 83f
8:40 5.5ft  -  5s 22 27 mph 1012.4mb 82f 83f
8:30  -   -   -  22 27 mph 1012.4mb 82f 83f
8:20  -   -   -  22 27 mph 1012.3mb 82f 83f
8:10  -   -   -  20 27 mph 1012.3mb 82f 83f
8:00  -   -   -  22 29 mph 1012mb 82f 83f
7:50 6ft 7s 5s 22 27 mph 1012mb 82f 83f
7:40 6ft  -  5s 25 31 mph 1011.9mb 82f 83f
7:30  -   -   -  22 31 mph 1011.8mb 82f 83f
7:20  -   -   -  22 29 mph 1011.8mb 82f 83f
7:10  -   -   -  25 29 mph 1011.6mb - 82f
7:00  -   -   -  22 29 mph 1011.6mb 82f 82f
6:50 5.5ft  -  5s 22 29 mph 1011.5mb 82f 82f
6:40 5.5ft 7s 5s  -  mph - - -
6:30  -   -   -  20 27 mph 1011.5mb 82f 82f
6:20  -   -   -  20 25 mph 1011.3mb 82f 82f
6:10  -   -   -  20 25 mph 1011.3mb 82f 82f
6:00  -   -   -  20 25 mph 1011.1mb 82f 82f
5:50 5ft 8s 5s 20 25 mph 1011mb 82f 82f
5:40  -   -   -  20 25 mph 1011mb 82f 82f
5:30  -   -   -  20 27 mph 1011mb 82f 82f
5:20  -   -   -  22 27 mph 1010.9mb 82f 82f
5:10  -   -   -  22 27 mph 1010.8mb 82f 82f
5:00  -   -   -  20 27 mph 1010.6mb 82f 82f
4:50 5.5ft 7s 5s 22 27 mph 1010.5mb 82f 82f
4:40  -   -   -  22 27 mph 1010.4mb 82f 83f
4:30  -   -   -  20 25 mph 1010.3mb 82f 83f
4:20  -   -   -  20 25 mph 1010mb 82f 83f
4:10  -   -   -  20 25 mph 1010.1mb 82f 83f
4:00  -   -   -  20 25 mph 1010.3mb 82f 83f
3:50 5.5ft 8s 5s 20 27 mph 1010.4mb 82f 83f
3:40 5.5ft  -  5s 22 27 mph 1010.4mb 82f 83f
3:30  -   -   -  22 27 mph 1010.4mb - 83f
3:20  -   -   -  20 25 mph 1010.4mb 82f 82f
3:10  -   -   -  18 25 mph 1010.5mb 82f 82f
3:00  -   -   -  20 27 mph 1010.5mb 82f 82f
2:50 6ft 7s 5s 20 27 mph 1010.5mb 82f 82f
2:40  -   -   -  20 27 mph 1010.4mb 82f 82f
2:30  -   -   -  22 27 mph 1010.3mb 82f 82f
2:20  -   -   -  20 27 mph 1010.4mb 82f 82f
2:10  -   -   -  22 27 mph 1010.4mb 82f 82f
2:00  -   -   -  22 27 mph 1010.3mb 82f 82f
1:50 5.5ft 8s 5s 22 29 mph 1010.4mb 82f 83f
1:40 5.5ft  -  5s 22 27 mph 1010.4mb 82f 83f
1:30  -   -   -  22 25 mph 1010.4mb 82f 83f
1:20  -   -   -  20 25 mph 1010.5mb 82f 83f
1:10  -   -   -  20 25 mph 1010.8mb 82f 83f
1:00  -   -   -  18 22 mph 1010.9mb 82f 82f
12:50 5.5ft 8s 5s 18 22 mph 1011mb 82f 82f
12:40  -   -   -  18 25 mph 1011.1mb 82f 82f
12:30  -   -   -  20 25 mph 1011.3mb 82f 82f
12:20  -   -   -  20 27 mph 1011.4mb 82f 82f
12:10  -   -   -  22 27 mph 1011.5mb 82f 82f
12:00  -   -   -  22 27 mph 1011.6mb 82f 82f
Dom 12/04 11:50 6ft 8s 5s 22 27 mph 1011.6mb 82f 82f
11:40 6ft  -  5s 22 27 mph 1011.5mb 82f 82f
11:30  -   -   -  22 27 mph 1011.6mb 82f 82f
11:20  -   -   -  20 27 mph 1011.8mb 82f 82f
11:10  -   -   -  22 27 mph 1012mb 82f 82f
11:00  -   -   -  22 27 mph 1011.9mb 82f 82f
10:50 5ft 8s 5s 20 25 mph 1012mb 82f 82f
10:40  -   -   -  22 27 mph 1012mb 82f 82f
10:30  -   -   -  20 25 mph 1012.3mb 82f 82f
10:20  -   -   -  18 25 mph 1012.3mb 82f 82f
10:10  -   -   -  20 25 mph 1012.3mb 82f 82f
10:00  -   -   -  22 27 mph 1012.4mb 82f 82f
9:50 5.5ft 7s 6s 18 22 mph 1012.5mb 82f 82f
9:40  -   -   -  18 25 mph 1012.5mb 82f 82f
9:30  -   -   -  16 18 mph 1012.6mb 82f 81f
9:20  -   -   -  11 18 mph 1012.5mb 82f 81f
9:10  -   -   -  13 18 mph 1012.8mb 82f 81f
9:00  -   -   -  16 18 mph 1012.9mb 82f 81f
8:50 5ft 7s 5s 16 20 mph 1012.9mb 82f 81f
8:40 5ft  -  5s 16 20 mph 1012.9mb 82f 81f
8:30  -   -   -  18 20 mph 1013.6mb - 81f
8:20  -   -   -  16 18 mph 1012.9mb 82f 81f
8:10  -   -   -  16 20 mph 1013mb 82f 81f
8:00  -   -   -  16 20 mph 1013mb 82f 81f
7:50 6ft 7s 6s 16 18 mph 1013mb 82f 81f
7:40  -   -   -  16 18 mph 1013mb 82f 80f
7:30  -   -   -  16 20 mph 1012.9mb 82f 81f
7:20  -   -   -  16 20 mph 1012.5mb 82f 80f
7:10  -   -   -  16 20 mph 1012.5mb 82f -
7:00  -   -   -  16 18 mph 1012.5mb 82f 80f
6:50 5.5ft 7s 5s 16 20 mph 1012.4mb 82f 80f
6:40 5.5ft  -  5s 13 18 mph 1012.4mb 82f 79f
6:30  -   -   -  11 16 mph 1012.3mb 82f 79f
6:20  -   -   -  13 16 mph 1012mb 82f 79f
6:10  -   -   -  13 16 mph 1011.8mb 82f 78f
6:00  -   -   -  11 16 mph 1011.5mb 82f 78f
5:50 5.5ft 7s 5s 11 16 mph 1011.8mb 82f 77f
5:40  -   -   -  16 20 mph 1011.8mb 82f 77f
5:30  -   -   -  18 25 mph 1012mb 82f 78f
5:20  -   -   -  18 22 mph 1011.8mb 82f 79f
5:10  -   -   -  20 27 mph 1012mb 82f 78f
5:00  -   -   -  25 29 mph 1011.8mb 82f 78f
4:50 6ft 7s 5s 25 31 mph 1011.5mb 82f 80f
4:40 6ft  -  5s 22 29 mph 1011.4mb 82f 81f
4:30  -   -   -  18 22 mph 1011.4mb 82f 81f
4:20  -   -   -  18 20 mph 1011mb 82f 81f
4:10  -   -   -  18 25 mph 1010.9mb 82f 80f
4:00  -   -   -  16 20 mph 1010.5mb 82f 79f
3:50 5.5ft 7s 5s 13 20 mph 1010.9mb 82f 78f
3:40  -   -   -  22 34 mph 1011mb 82f 79f
3:30  -   -   -  22 31 mph 1011.1mb 82f 81f
3:20  -   -   -  13 22 mph 1010.6mb 82f 81f
3:10  -   -   -  16 20 mph 1010.6mb 82f 82f
3:00  -   -   -  16 20 mph 1010.5mb 82f 82f
2:50 5ft 7s 5s 18 22 mph 1010.4mb 82f 82f
2:40  -   -   -  18 22 mph 1010.5mb 82f 82f
2:30  -   -   -  16 22 mph 1010.5mb 82f 81f
2:20  -   -   -  18 27 mph 1010.5mb 82f 81f
2:10  -   -   -  18 22 mph 1010.6mb 82f 81f
2:00  -   -   -  18 20 mph 1010.6mb 82f 82f
1:50 5ft 7s 5s 20 25 mph 1010.6mb 82f 82f
1:40  -   -   -  20 22 mph 1010.5mb 82f 82f
1:30  -   -   -  18 22 mph 1010.5mb 82f 82f
1:20  -   -   -  18 22 mph 1010.5mb 82f 82f
1:10  -   -   -  20 22 mph 1010.8mb 82f 82f
1:00  -   -   -  18 25 mph 1011mb 82f 82f
12:50 5.5ft 7s 5s 20 22 mph 1011mb 82f 82f
12:40 5.5ft  -  5s 18 22 mph 1011.1mb 82f 81f
12:30  -   -   -  18 22 mph 1011.4mb 82f 82f
12:20  -   -   -  18 22 mph 1011.5mb 82f 82f
12:10  -   -   -  18 22 mph 1011.8mb 82f 81f
12:00  -   -   -  18 22 mph 1011.5mb 82f 81f
11:50 5ft 7s 5s 18 22 mph 1011.5mb 82f 81f
11:40 5ft  -  5s 13 18 mph 1011.6mb 82f 82f
11:30  -   -   -  13 16 mph 1011.6mb 82f 82f
11:20  -   -   -  11 13 mph 1011.5mb 82f 82f
11:10  -   -   -  11 13 mph 1011.6mb 82f 82f
11:00  -   -   -  13 18 mph 1011.6mb 82f 82f
10:50 5ft 7s 5s 16 20 mph 1012.6mb 82f 82f
10:40 5ft  -  5s 18 22 mph 1013mb 82f 82f
10:30  -   -   -  20 25 mph 1012.6mb 82f 82f
10:20  -   -   -  20 25 mph 1011.9mb 82f 82f
10:10  -   -   -  22 25 mph 1012.3mb 82f 82f
10:00  -   -   -  22 27 mph 1012.3mb 82f 82f
9:50 5ft 6s 5s 20 25 mph 1012.6mb 82f 82f
9:40 5ft  -  5s 20 25 mph 1013mb 82f 82f
9:30  -   -   -  22 29 mph 1012.9mb 82f 82f
9:20  -   -   -  22 29 mph 1012.6mb 82f 82f
9:10  -   -   -  22 27 mph 1012.3mb 82f 82f
9:00  -   -   -  22 31 mph 1012.3mb 82f 83f
8:50 5ft 7s 5s 18 25 mph 1012.4mb 82f 83f
8:40 5ft  -  5s 20 22 mph 1012.4mb 82f 83f
8:30  -   -   -  20 22 mph 1012.3mb 82f 83f
8:20  -   -   -  20 25 mph 1012.4mb 82f 83f
8:10  -   -   -  18 22 mph 1012.4mb 82f 83f
8:00  -   -   -  20 25 mph 1012mb 82f 83f
7:50 5ft 7s 5s 20 25 mph 1012mb 82f 83f
7:40 5ft  -  5s 18 22 mph 1011.9mb 82f 83f
7:30  -   -   -  20 22 mph 1011.8mb 82f 83f
7:20  -   -   -  20 25 mph 1011.6mb 82f 83f
7:10  -   -   -  20 25 mph 1011.6mb 82f 83f
7:00  -   -   -  20 27 mph 1011.3mb - 82f
6:50 5ft 6s 5s 20 25 mph 1011.3mb 82f 82f
6:40  -   -   -  20 25 mph 1011.1mb 82f 82f
6:30  -   -   -  20 25 mph 1011.3mb 82f 83f
6:20  -   -   -  20 25 mph 1011.3mb 82f 82f
6:10  -   -   -  20 25 mph 1012.3mb - 83f
6:00  -   -   -  20 25 mph 1011.5mb 82f 82f
5:50 4.5ft 7s 5s 18 25 mph 1011.5mb 82f 82f
5:40  -   -   -  20 25 mph 1011.3mb 82f 82f
5:30  -   -   -  20 25 mph 1011mb 82f 82f
5:20  -   -   -  18 22 mph 1011mb 82f 82f
5:10  -   -   -  18 22 mph 1011.1mb 82f 82f
5:00  -   -   -  20 25 mph 1011mb 82f 82f
4:50 4.5ft 7s 5s 20 27 mph 1010.6mb 82f 82f
4:40 4.5ft  -  5s 20 25 mph 1010.4mb 82f 82f
4:30  -   -   -  20 25 mph 1010.4mb 82f 82f
4:20  -   -   -  20 25 mph 1010.3mb 82f 82f
4:10  -   -   -  20 25 mph 1010.3mb 82f 82f
4:00  -   -   -  18 22 mph 1010.4mb 82f 82f
3:50 4.5ft 7s 5s 18 22 mph 1010.5mb 82f 82f
3:40 4.5ft  -  5s 18 22 mph 1010.8mb 82f 82f
3:30  -   -   -  20 22 mph 1010.6mb 82f 82f
3:20  -   -   -  18 22 mph 1011mb 82f 82f
3:10  -   -   -  18 22 mph 1010.9mb 82f 82f
3:00  -   -   -  20 22 mph 1010.5mb 82f 82f
2:50 4.5ft 7s 5s 18 22 mph 1010.6mb 82f 82f
2:40 4.5ft  -  5s 18 22 mph 1011mb 82f 82f
2:30  -   -   -  18 22 mph 1011mb 82f 82f
2:20  -   -   -  20 22 mph 1011mb 82f 82f
2:10  -   -   -  20 22 mph 1010.9mb 82f 82f
2:00  -   -   -  18 20 mph 1011mb 82f 82f
1:50 5ft 7s 5s 18 22 mph 1011mb 82f 82f
1:40 5ft  -  5s 18 22 mph 1011.1mb 82f 82f
1:30  -   -   -  18 22 mph 1011.3mb 82f 82f
1:20  -   -   -  20 22 mph 1011.4mb 82f 82f
1:10  -   -   -  18 22 mph 1011.5mb 82f 82f
1:00  -   -   -  18 22 mph 1011.8mb 82f 82f
12:50 5ft 7s 5s 18 22 mph 1011.9mb 82f 82f
12:40  -   -   -  16 20 mph 1012mb 82f 82f
12:30  -   -   -  18 20 mph 1012mb 82f 82f
12:20  -   -   -  18 20 mph 1012mb 82f 82f
12:10  -   -   -  18 22 mph 1012mb 82f 82f
12:00  -   -   -  18 22 mph 1012mb 82f 82f
Sáb 12/03 11:50 4.5ft 7s 5s 18 20 mph 1012.1mb 83f 82f
11:40 4.5ft  -  5s 18 22 mph 1012.3mb 83f 82f
11:30  -   -   -  18 22 mph 1012.4mb 83f 82f
11:20  -   -   -  18 22 mph 1012.4mb 83f 82f
11:10  -   -   -  20 22 mph 1012.4mb 83f 82f
11:00  -   -   -  18 22 mph 1012.3mb 83f 82f
10:50 4.5ft 7s 5s 18 20 mph 1012.5mb 83f 82f
10:40  -   -   -  18 22 mph 1012.5mb 83f 82f
10:30  -   -   -  18 22 mph 1012.5mb 83f 82f
10:20  -   -   -  18 22 mph 1012.5mb 83f 82f
10:10  -   -   -  18 22 mph 1012.8mb 83f 82f
10:00  -   -   -  18 20 mph 1012.9mb 83f 82f
9:50 5ft 7s 5s 18 22 mph 1012.9mb 83f 82f
9:40 5ft  -  5s 18 22 mph 1012.8mb 83f 82f
9:30  -   -   -  18 22 mph 1012.9mb 83f 82f
9:20  -   -   -  18 22 mph 1012.9mb 83f 83f
9:10  -   -   -  18 22 mph 1013mb 83f 82f
9:00  -   -   -  18 20 mph 1013mb 83f 82f
8:50 4.5ft 7s 5s 18 20 mph 1013mb 83f 82f
8:40 4.5ft  -  5s 18 20 mph 1013mb 83f 82f
8:30  -   -   -  18 22 mph 1013mb 82f 82f
8:20  -   -   -  18 22 mph 1012.9mb 82f 82f
8:10  -   -   -  18 22 mph 1012.8mb 82f 82f
8:00  -   -   -  18 22 mph 1012.6mb 82f 82f
7:50 4.5ft 6s 5s 18 22 mph 1012.5mb 82f 82f
7:40  -   -   -  18 22 mph 1012.5mb 82f 82f
7:30  -   -   -  18 22 mph 1012.5mb 82f 82f
7:20  -   -   -  18 22 mph 1012.4mb 83f 82f
7:10  -   -   -  18 22 mph 1012.3mb 83f 82f
7:00  -   -   -  18 22 mph 1012.1mb - 82f
6:50 4.5ft 6s 5s 18 20 mph 1012mb 83f 82f
6:40  -   -   -  18 22 mph 1012mb 83f 82f
6:30  -   -   -  18 20 mph 1012mb 83f 82f
6:20  -   -   -  16 20 mph 1011.9mb 83f 82f